This is the latest recevied weather packets stored in our database for station/object S57D-6. If no packets are shown the sender has not sent any weather packets the latest 10 day(s).
| Time | Temp. | Humidity | Pressure | Rain* | Wind** | Luminosity | Snow |
|---|---|---|---|---|---|---|---|
| 1777575717 | 8.89° C | 49% | 1025.2 hPa | 0 mm | - | - | - |
| 1777575418 | 8.89° C | 49% | 1025.2 hPa | 0 mm | - | - | - |
| 1777575116 | 9.44° C | 47% | 1025.1 hPa | 0 mm | - | - | - |
| 1777574516 | 9.44° C | 46% | 1025.1 hPa | 0 mm | - | - | - |
| 1777574217 | 10° C | 44% | 1024.8 hPa | 0 mm | - | - | - |
| 1777573915 | 10° C | 44% | 1024.8 hPa | 0 mm | - | - | - |
| 1777573315 | 11.11° C | 42% | 1024.4 hPa | 0 mm | - | - | - |
| 1777573016 | 11.11° C | 41% | 1024.4 hPa | 0 mm | - | - | - |
| 1777572714 | 11.67° C | 39% | 1024.3 hPa | 0 mm | - | - | - |
| 1777572418 | 11.67° C | 40% | 1024.2 hPa | 0 mm | - | - | - |
| 1777572114 | 11.67° C | 39% | 1024.1 hPa | 0 mm | - | - | - |
| 1777571814 | 11.67° C | 39% | 1023.9 hPa | 0 mm | - | - | - |
| 1777571513 | 12.22° C | 38% | 1023.9 hPa | 0 mm | - | - | - |
| 1777571214 | 12.22° C | 38% | 1024 hPa | 0 mm | - | - | - |
| 1777570913 | 12.78° C | 38% | 1023.9 hPa | 0 mm | - | - | - |
| 1777570312 | 12.78° C | 38% | 1023.9 hPa | 0 mm | - | - | - |
| 1777569711 | 12.78° C | 37% | 1023.9 hPa | 0 mm | - | - | - |
| 1777569414 | 12.78° C | 37% | 1023.7 hPa | 0 mm | - | - | - |
| 1777569111 | 13.33° C | 37% | 1023.7 hPa | 0 mm | - | - | - |
| 1777568812 | 13.33° C | 36% | 1023.7 hPa | 0 mm | - | - | - |
| 1777568510 | 13.33° C | 36% | 1023.8 hPa | 0 mm | - | - | - |
| 1777568211 | 13.33° C | 37% | 1023.6 hPa | 0 mm | - | - | - |
| 1777567910 | 13.89° C | 36% | 1023.6 hPa | 0 mm | - | - | - |
| 1777567309 | 13.89° C | 36% | 1023.5 hPa | 0 mm | - | - | - |
| 1777567010 | 14.44° C | 36% | 1023.7 hPa | 0 mm | - | - | - |
* Rain latest hour (hover to see other rain measurements)
** Current wind speed in m/s (hover to see current wind gust speed)